Location: Adaghas
(31.2259°N, 9.0496°W)
Time: 03:27:09
(UTC+00:00)

GPS 2-04 Rocket1 - Pass Details

Date: 18 September 2020
Orbit: 417 x 548 km, 35.6° (Epoch: 23 October)

Event Time Altitude Azimuth Distance (km) Brightness Sun altitude
Rises 19:39:12 0° 283° (WNW) 2,705 8.4 -13.9°
Reaches altitude 10° 19:41:38 10° 274° (W) 1,807 6.9 -14.4°
Maximum altitude 19:45:24 33° 209° (SSW) 913 4.1 -15.2°
Enters shadow 19:48:02 16° 153° (SSE) 1,414 4.5 -15.8°
